FW5426 Weather Reports


Display with metric or nautical units.
time (UTC)temp
F
wind
direction
speed
MPH
gust
MPH
rain 1hr
in
rain 24hr
in
rain mn
in
humidity
%
barometer
mb
20260506091329 64 328 10.0 17.0 0.00 0.00 0.00 31 1014.9
20260506090829 64 317 11.0 21.0 0.00 0.00 0.00 31 1014.9
20260506090555 64 331 11.0 21.0 0.00 0.00 0.00 32 1014.9
20260506085829 64 313 9.0 22.0 0.00 0.00 0.00 32 1014.7
20260506085557 64 312 9.0 22.0 0.00 0.00 0.00 33 1014.7
20260506084830 64 336 8.0 15.0 0.00 0.00 0.00 32 1014.7
20260506084329 64 288 8.0 15.0 0.00 0.00 0.00 32 1014.9
20260506083829 64 316 8.0 17.0 0.00 0.00 0.00 32 1014.9
20260506083328 65 337 7.0 17.0 0.00 0.00 0.00 32 1014.9
20260506082829 65 337 8.0 16.0 0.00 0.00 0.00 31 1015.0
20260506082330 65 312 9.0 18.0 0.00 0.00 0.00 30 1014.9
20260506081829 65 315 9.0 18.0 0.00 0.00 0.00 30 1014.7
20260506081545 66 290 12.0 25.0 0.00 0.00 0.00 28 1014.9
20260506081532 65 317 11.0 25.0 0.00 0.00 0.00 29 1014.9
20260506080329 66 299 12.0 18.0 0.00 0.00 0.00 26 1014.7
20260506073328 68 281 13.0 24.0 0.00 0.00 0.00 23 1014.6
20260506072829 68 259 12.0 24.0 0.00 0.00 0.00 22 1014.4
20260506072554 68 241 12.0 26.0 0.00 0.00 0.00 23 1014.4
20260506071830 68 329 13.0 26.0 0.00 0.00 0.00 23 1014.5
20260506071329 68 286 12.0 23.0 0.00 0.00 0.00 23 1014.4
20260506070829 68 276 12.0 23.0 0.00 0.00 0.00 23 1014.5
20260506070329 68 275 11.0 19.0 0.00 0.00 0.00 23 1014.5
20260506070321 67 275 10.0 18.0 0.00 0.00 0.00 23 1014.5
20260506062330 69 279 11.0 18.0 0.00 0.00 0.00 23 1014.4
20260506062049 69 244 11.0 18.0 0.00 0.00 0.00 22 1014.3
20260506061329 69 257 11.0 21.0 0.00 0.00 0.00 22 1014.4
20260506060830 70 244 12.0 21.0 0.00 0.00 0.00 22 1014.4
20260506060553 70 271 11.0 20.0 0.00 0.00 0.00 22 1014.3
20260506051329 70 267 12.0 21.0 0.00 0.00 0.00 21 1014.0
20260506050829 70 275 13.0 21.0 0.00 0.00 0.00 21 1014.0
20260506050556 71 265 12.0 25.0 0.00 0.00 0.00 20 1013.8
20260506044829 71 266 14.0 24.0 0.00 0.00 0.00 19 1013.6
20260506044329 71 244 16.0 25.0 0.00 0.00 0.00 18 1013.5
20260506043827 71 275 14.0 25.0 0.00 0.00 0.00 19 1013.6
20260506043321 71 254 12.0 23.0 0.00 0.00 0.00 19 1013.4
20260506042815 71 284 13.0 26.0 0.00 0.00 0.00 18 1013.3
20260506042309 71 292 15.0 28.0 0.00 0.00 0.00 18 1013.3
20260506042028 72 306 14.0 28.0 0.00 0.00 0.00 17 1013.3
20260506041303 72 266 13.0 23.0 0.00 0.00 0.00 17 1013.3
20260506040804 72 249 14.0 25.0 0.00 0.00 0.00 16 1013.3
20260506040303 72 272 17.0 26.0 0.00 0.00 0.00 16 1013.1
20260506040027 72 256 16.0 27.0 0.00 0.00 0.00 15 1013.1
20260506035305 72 277 13.0 27.0 0.00 0.00 0.00 16 1013.1
20260506034803 72 242 13.0 23.0 0.00 0.00 0.00 16 1012.9
20260506034304 72 246 15.0 24.0 0.00 0.00 0.00 16 1012.9
20260506033803 72 263 15.0 24.0 0.00 0.00 0.00 17 1012.8
20260506033303 73 276 13.0 23.0 0.00 0.00 0.00 17 1012.7
20260506033028 73 258 11.0 22.0 0.00 0.00 0.00 18 1012.6
20260506032526 73 248 10.0 22.0 0.00 0.00 0.00 19 1012.6
20260506031803 73 254 11.0 22.0 0.00 0.00 0.00 19 1012.6
20260506031303 73 297 12.0 22.0 0.00 0.00 0.00 19 1012.6
20260506030803 73 257 12.0 30.0 0.00 0.00 0.00 19 1012.4
20260506030523 73 255 13.0 30.0 0.00 0.00 0.00 18 1012.5
20260506025801 74 277 12.0 27.0 0.00 0.00 0.00 18 1012.4
20260506025522 74 262 12.0 27.0 0.00 0.00 0.00 19 1012.3
20260506024800 74 265 11.0 26.0 0.00 0.00 0.00 19 1012.3
20260506024301 74 224 11.0 18.0 0.00 0.00 0.00 20 1012.3
20260506023801 74 262 9.0 18.0 0.00 0.00 0.00 20 1011.9
20260506023531 74 190 8.0 17.0 0.00 0.00 0.00 21 1011.9
20260506022801 74 261 11.0 21.0 0.00 0.00 0.00 21 1011.9
20260506022305 74 254 11.0 26.0 0.00 0.00 0.00 21 1011.8
20260506021801 74 252 9.0 26.0 0.00 0.00 0.00 20 1011.8
20260506021301 74 276 10.0 24.0 0.00 0.00 0.00 20 1011.8
20260506021028 74 234 14.0 25.0 0.00 0.00 0.00 20 1011.7
20260506020302 74 288 13.0 25.0 0.00 0.00 0.00 19 1011.7
20260506015801 75 229 11.0 20.0 0.00 0.00 0.00 19 1011.7
20260506015520 75 244 11.0 19.0 0.00 0.00 0.00 19 1011.7
20260506014801 75 264 11.0 31.0 0.00 0.00 0.00 19 1011.7
20260506014301 75 256 12.0 31.0 0.00 0.00 0.00 19 1011.5
20260506013801 75 242 11.0 21.0 0.00 0.00 0.00 19 1011.5
20260506013300 75 238 10.0 19.0 0.00 0.00 0.00 19 1011.4
20260506012801 75 248 13.0 27.0 0.00 0.00 0.00 19 1011.4
20260506012307 75 237 14.0 27.0 0.00 0.00 0.00 19 1011.4
20260506012022 75 252 12.0 24.0 0.00 0.00 0.00 19 1011.4
20260506011301 76 238 12.0 21.0 0.00 0.00 0.00 20 1011.4
20260506010801 76 292 13.0 21.0 0.00 0.00 0.00 21 1011.3
20260506010521 76 255 12.0 21.0 0.00 0.00 0.00 21 1011.4
20260506005801 76 217 13.0 26.0 0.00 0.00 0.00 21 1011.1
20260506005301 76 236 15.0 29.0 0.00 0.00 0.00 21 1011.4
20260506004801 76 265 13.0 29.0 0.00 0.00 0.00 22 1011.4
20260506004301 76 196 12.0 26.0 0.00 0.00 0.00 21 1011.3
20260506003801 76 215 12.0 24.0 0.00 0.00 0.00 22 1011.4
20260506003301 76 264 13.0 25.0 0.00 0.00 0.00 22 1011.3
20260506002800 76 246 12.0 25.0 0.00 0.00 0.00 23 1011.3
20260506002300 76 272 12.0 25.0 0.00 0.00 0.00 24 1011.4
20260506001801 76 275 13.0 25.0 0.00 0.00 0.00 24 1011.5
20260506001301 76 250 14.0 26.0 0.00 0.00 0.00 25 1011.4
20260506000801 76 273 11.0 26.0 0.00 0.00 0.00 25 1011.4
20260506000302 76 275 9.0 19.0 0.00 0.00 0.00 25 1011.4
20260505235801 76 267 8.0 17.0 0.00 0.00 0.00 25 1011.4
20260505235304 76 238 6.0 17.0 0.00 0.00 0.00 26 1011.4
20260505234801 76 296 7.0 17.0 0.00 0.00 0.00 26 1011.4
20260505234300 76 252 9.0 20.0 0.00 0.00 0.00 26 1011.3
20260505233801 76 311 9.0 20.0 0.00 0.00 0.00 26 1011.4
20260505233301 76 241 9.0 17.0 0.00 0.00 0.00 26 1011.3
20260505232800 75 279 8.0 17.0 0.00 0.00 0.00 28 1011.3
20260505232301 75 313 9.0 19.0 0.00 0.00 0.00 28 1011.4
20260505231801 76 299 10.0 19.0 0.00 0.00 0.00 28 1011.3
20260505231301 75 219 11.0 24.0 0.00 0.00 0.00 28 1011.5
20260505230801 76 271 10.0 24.0 0.00 0.00 0.00 28 1011.5
20260505230301 76 271 10.0 21.0 0.00 0.00 0.00 28 1011.5
20260505225759 76 294 10.0 21.0 0.00 0.00 0.00 29 1011.6
20260505225259 76 262 8.0 18.0 0.00 0.00 0.00 29 1011.7
20260505224758 75 272 9.0 20.0 0.00 0.00 0.00 30 1011.8
20260505224259 75 276 12.0 21.0 0.00 0.00 0.00 30 1012.2
20260505223755 75 242 13.0 26.0 0.00 0.00 0.00 30 1012.0
20260505223253 75 298 13.0 26.0 0.00 0.00 0.00 30 1012.2
20260505222753 75 291 13.0 24.0 0.00 0.00 0.00 30 1012.0
20260505222253 75 270 12.0 23.0 0.00 0.00 0.00 30 1012.3
20260505221752 75 290 11.0 22.0 0.00 0.00 0.00 30 1012.5
20260505221520 74 309 11.0 21.0 0.00 0.00 0.00 31 1012.4
20260505221017 74 320 13.0 24.0 0.00 0.00 0.00 32 1012.4
20260505220252 74 290 13.0 24.0 0.00 0.00 0.00 31 1012.5
20260505220020 75 288 10.0 22.0 0.00 0.00 0.00 31 1012.5
20260505215243 75 287 8.0 15.0 0.00 0.00 0.00 31 1012.5
20260505214736 76 315 11.0 25.0 0.00 0.00 0.00 30 1012.5
20260505214234 76 244 15.0 27.0 0.00 0.00 0.00 29 1012.7
20260505213735 76 226 14.0 27.0 0.00 0.00 0.00 29 1012.9
20260505213234 76 272 12.0 23.0 0.00 0.00 0.00 31 1013.2
20260505212958 76 271 11.0 23.0 0.00 0.00 0.00 30 1013.1
20260505212234 76 254 9.0 17.0 0.00 0.00 0.00 31 1013.2
20260505211735 76 279 8.0 17.0 0.00 0.00 0.00 31 1013.3
20260505211459 75 241 7.0 15.0 0.00 0.00 0.00 32 1013.4
20260505210735 75 298 7.0 15.0 0.00 0.00 0.00 33 1013.5
20260505210232 75 306 8.0 19.0 0.00 0.00 0.00 33 1013.5
20260505205731 74 242 10.0 19.0 0.00 0.00 0.00 33 1013.5
20260505205230 74 342 11.0 18.0 0.00 0.00 0.00 33 1013.5
20260505204731 74 316 10.0 18.0 0.00 0.00 0.00 33 1013.6
20260505204230 74 319 8.0 14.0 0.00 0.00 0.00 33 1013.7
20260505203952 74 217 8.0 19.0 0.00 0.00 0.00 34 1013.8
20260505203231 74 250 7.0 19.0 0.00 0.00 0.00 33 1013.8
20260505202730 74 343 6.0 14.0 0.00 0.00 0.00 34 1013.7
20260505202444 74 287 9.0 18.0 0.00 0.00 0.00 33 1014.1
20260505201717 74 296 10.0 18.0 0.00 0.00 0.00 34 1014.2
20260505201432 73 323 8.0 17.0 0.00 0.00 0.00 34 1014.1
20260505200705 74 302 8.0 17.0 0.00 0.00 0.00 34 1014.1
20260505200204 74 232 9.0 16.0 0.00 0.00 0.00 33 1014.2
20260505195701 74 284 8.0 18.0 0.00 0.00 0.00 33 1014.3
20260505195202 74 313 9.0 24.0 0.00 0.00 0.00 33 1014.4
20260505194702 73 307 10.0 24.0 0.00 0.00 0.00 33 1014.4
20260505194427 73 308 11.0 20.0 0.00 0.00 0.00 33 1014.6
20260505193702 73 283 10.0 20.0 0.00 0.00 0.00 33 1014.5
20260505193202 75 284 10.0 20.0 0.00 0.00 0.00 31 1014.5
20260505192702 74 255 10.0 21.0 0.00 0.00 0.00 32 1014.5
20260505192202 75 247 13.0 27.0 0.00 0.00 0.00 31 1014.5
20260505191701 74 222 14.0 27.0 0.00 0.00 0.00 31 1014.5
20260505191202 74 240 13.0 26.0 0.00 0.00 0.00 31 1014.5
20260505190701 74 286 13.0 26.0 0.00 0.00 0.00 31 1014.6
20260505190201 73 285 12.0 26.0 0.00 0.00 0.00 31 1014.5
20260505185702 73 202 10.0 25.0 0.00 0.00 0.00 31 1014.5
20260505185202 73 254 11.0 21.0 0.00 0.00 0.00 30 1014.4
20260505184701 73 272 11.0 21.0 0.00 0.00 0.00 30 1014.3
20260505184201 73 279 10.0 18.0 0.00 0.00 0.00 30 1014.5
20260505184139 74 287 10.0 18.0 0.00 0.00 0.00 29 1014.6
20260505183202 74 267 10.0 24.0 0.00 0.00 0.00 29 1014.5
20260505182703 74 259 9.0 24.0 0.00 0.00 0.00 29 1014.5
20260505182201 73 224 12.0 23.0 0.00 0.00 0.00 29 1014.5
20260505181701 73 251 13.0 23.0 0.00 0.00 0.00 30 1014.7
20260505181201 74 255 10.0 20.0 0.00 0.00 0.00 30 1014.5
20260505180701 74 236 9.0 20.0 0.00 0.00 0.00 30 1014.4
20260505180201 74 257 11.0 25.0 0.00 0.00 0.00 31 1014.4
20260505175701 73 225 12.0 25.0 0.00 0.00 0.00 31 1014.4
20260505175201 73 246 10.0 19.0 0.00 0.00 0.00 31 1014.7
20260505174701 73 299 9.0 20.0 0.00 0.00 0.00 32 1014.6
20260505174201 73 252 8.0 20.0 0.00 0.00 0.00 32 1015.0
20260505174143 73 290 6.0 20.0 0.00 0.00 0.00 33 1014.9
20260505173421 72 280 8.0 21.0 0.00 0.00 0.00 34 1015.0
20260505172701 72 259 9.0 21.0 0.00 0.00 0.00 34 1015.0
20260505172201 72 284 7.0 15.0 0.00 0.00 0.00 35 1014.9
20260505171701 71 255 6.0 14.0 0.00 0.00 0.00 36 1014.9
20260505171200 70 236 6.0 14.0 0.00 0.00 0.00 36 1015.0
20260505170920 70 273 6.0 14.0 0.00 0.00 0.00 37 1015.0
20260505170156 70 269 6.0 14.0 0.00 0.00 0.00 36 1015.0
20260505170143 69 253 6.0 9.0 0.00 0.00 0.00 37 1014.9
20260505165417 69 199 6.0 14.0 0.00 0.00 0.00 37 1014.9
20260505164920 69 225 6.0 14.0 0.00 0.00 0.00 37 1014.7
20260505164417 69 228 7.0 17.0 0.00 0.00 0.00 37 1014.7
20260505163652 69 222 6.0 17.0 0.00 0.00 0.00 36 1015.0
20260505163152 69 258 3.0 10.0 0.00 0.00 0.00 37 1014.9
20260505162652 68 261 2.0 6.0 0.00 0.00 0.00 37 1014.9
20260505162152 68 102 3.0 9.0 0.00 0.00 0.00 39 1014.7
20260505161652 68 108 5.0 9.0 0.00 0.00 0.00 39 1014.9
20260505161152 67 117 3.0 8.0 0.00 0.00 0.00 40 1015.0
20260505160652 67 134 2.0 7.0 0.00 0.00 0.00 41 1015.0
20260505160151 67 122 4.0 11.0 0.00 0.00 0.00 42 1014.9
20260505153144 65 90 2.0 7.0 0.00 0.00 0.00 43 1014.7
20260505152644 65 42 2.0 5.0 0.00 0.00 0.00 44 1014.6
20260505152142 64 191 1.0 6.0 0.00 0.00 0.00 45 1014.7
20260505151907 64 108 2.0 6.0 0.00 0.00 0.00 46 1014.7
20260505151143 64 50 2.0 7.0 0.00 0.00 0.00 46 1014.9
20260505150642 63 20 3.0 7.0 0.00 0.00 0.00 47 1014.7
20260505150137 63 82 3.0 7.0 0.00 0.00 0.00 47 1014.7
20260505140638 65 42 5.0 12.0 0.00 0.00 0.00 43 1015.1
20260505140400 65 30 6.0 18.0 0.00 0.00 0.00 41 1015.2
20260505130130 64 41 3.0 8.0 0.00 0.00 0.00 43 1014.6
20260505124630 64 12 5.0 12.0 0.00 0.00 0.00 43 1014.4
20260505124354 64 316 7.0 17.0 0.00 0.00 0.00 43 1014.2
20260505123630 64 339 8.0 17.0 0.00 0.00 0.00 44 1014.3
20260505123129 63 336 8.0 14.0 0.00 0.00 0.00 44 1014.3
20260505122629 64 320 8.0 16.0 0.00 0.00 0.00 43 1014.3
20260505122130 64 312 8.0 16.0 0.00 0.00 0.00 43 1014.2
20260505121851 64 327 9.0 18.0 0.00 0.00 0.00 43 1014.2
20260505121129 63 329 9.0 18.0 0.00 0.00 0.00 43 1013.8
20260505120629 63 335 8.0 18.0 0.00 0.00 0.00 43 1013.7
20260505120130 64 329 10.0 20.0 0.00 0.00 0.00 43 1013.8
20260505115629 64 313 12.0 21.0 0.00 0.00 0.00 42 1013.7
20260505115129 64 305 12.0 21.0 0.00 0.00 0.00 42 1013.7
20260505114632 64 316 13.0 24.0 0.00 0.00 0.00 41 1013.7
20260505114350 64 314 12.0 24.0 0.00 0.00 0.00 42 1013.8
20260505113629 64 304 12.0 19.0 0.00 0.00 0.00 41 1013.6
20260505113129 64 312 12.0 24.0 0.00 0.00 0.00 41 1013.3
20260505112629 64 290 12.0 24.0 0.00 0.00 0.00 40 1013.5
20260505112130 64 313 11.0 20.0 0.00 0.00 0.00 40 1013.4
20260505111629 65 277 12.0 21.0 0.00 0.00 0.00 39 1013.2
20260505111129 65 294 14.0 27.0 0.00 0.00 0.00 39 1012.9
20260505110630 65 299 15.0 27.0 0.00 0.00 0.00 38 1012.9
20260505110356 65 294 15.0 24.0 0.00 0.00 0.00 38 1012.9
20260505101607 67 294 14.0 29.0 0.00 0.00 0.00 31 1012.9
20260505101107 67 332 14.0 29.0 0.00 0.00 0.00 32 1012.8
20260505100607 66 284 14.0 22.0 0.00 0.00 0.00 32 1012.7
20260505100334 67 317 13.0 24.0 0.00 0.00 0.00 33 1013.1
20260505095607 66 339 12.0 24.0 0.00 0.00 0.00 33 1013.1
20260505095107 66 302 13.0 21.0 0.00 0.00 0.00 34 1013.1
20260505094830 66 334 13.0 21.0 0.00 0.00 0.00 34 1013.2
20260505094107 67 323 13.0 22.0 0.00 0.00 0.00 34 1012.9
20260505093607 66 307 13.0 24.0 0.00 0.00 0.00 34 1013.1
20260505093107 66 323 13.0 24.0 0.00 0.00 0.00 34 1012.9
20260505093051 67 285 13.0 24.0 0.00 0.00 0.00 34 1013.1
20260505092107 67 311 13.0 28.0 0.00 0.00 0.00 34 1013.1
20260505091606 67 292 12.0 28.0 0.00 0.00 0.00 33 1013.1